Location: Bergfeld
(52.0500°N, 11.7833°E)
Time: 04:50:16
(UTC+00:00)

GEOS 3 Rocket - Pass Details

Date: 17 February 2020
Orbit: 778 x 841 km, 115.0° (Epoch: 29 March)

Event Time Altitude Azimuth Distance (km) Brightness Sun altitude
Rises 04:10:12 0° 44° (NE) 3,361 7.6 -21.3°
Reaches altitude 10° 04:12:30 10° 46° (NE) 2,434 6.8 -21.0°
Maximum altitude 04:17:49 74° 132° (SE) 869 3.8 -20.2°
Enters shadow 04:21:28 21° 214° (SW) 1,793 5.0 -19.6°
